{"data":{"norad_id":69820,"epoch":"2026-09-19T22:23:16.952640Z","epoch_age_seconds":66774,"freshness":"FRESH","line1":"1 69820U 26154B   26262.93283510  .00014945  00000+0  45236-3 0  9997","line2":"2 69820  53.1612 334.1937 0001237  86.1568 273.9576 15.34414124 13150","mean_motion":15.34414124,"eccentricity":0.0001237,"inclination_deg":53.1612,"raan_deg":334.1937,"arg_perigee_deg":86.1568,"mean_anomaly_deg":273.9576,"bstar":0.00045236,"rev_number":1315,"period_min":93.84689422997,"perigee_km":461.81505427973,"apogee_km":463.50746776951,"semimajor_km":6840.7982610246,"source":"CELESTRAK","updated_at":"2026-09-20T09:00:44.291274Z"}}